Weather in Abano Terme

Italy     45°21′36″N   11°47′42″E
temp.,
°C
wind,
m/s
gust,
m/s
humid.,
%
clouds,
%
prec.,
mm/h
press.,
hPa
HPBL,
m
17 september, fri
fri1723:00+19nne229710 4.4 101340
02:00+18n2398100 5.6 101284
05:00+18nne129781 0.4 1011126
08:00+19n239295 3.9 1011285
11:00+20n118472 1.3 1011430
14:00+20wnw2289100 1.7 1011139
17:00+21wsw117923 0.0 1010216
20:00+19nnw01855 0.0 101111
18 september, sat
sat1823:00+18nne22875 0.0 101213
02:00+17n23901 0.0 101235
05:00+17n23933 0.0 101250
08:00+17nnw239213 0.3 1012123
11:00+22nne337034 0.0 1013677
14:00+25ne225646 0.3 10121307
17:00+24ene326352 0.6 1010659
20:00+19ene369162 2.3 1010128
19 september, sun
sun1923:00+19nne2392100 4.3 1011105
02:00+18nne3694100 9.4 1011226
05:00+17nne24955 1.3 101194
08:00+17nne2492100 2.0 1010128
11:00+21ene468264 2.1 1009681
14:00+23ssw137012 6.9 1009729
17:00+20n558213 3.9 1008277
20:00+16n35958 5.6 1008107
20 september, mon
mon2023:00+15n35934 0.4 1010109
02:00+15n22915 0.4 101141
05:00+15nnw11871 0.0 101213
08:00+16n118548 0.0 101336
11:00+20ne23668 0.0 1014532
14:00+23e335734 0.3 10141254
17:00+19ese347696 2.1 1013195
20:00+18ese238632 3.9 101464
21 september, tue
tue2123:00+16nne229116 3.4 101641
02:00+15nne34884 3.4 101681
05:00+14nne23895 0.0 101652
08:00+16nne238716 0.0 1017112
11:00+19ne346310 0.0 1019716
14:00+22ene445156 0.0 10191424
17:00+21ene55565 0.0 10181033
20:00+17ene36775 0.1 1020151